Location: Marcé
(47.5801°N, 0.3280°W)
Time: 03:23:31
(UTC+01:00)

Vanguard 1 Rocket - Pass Details

Date: 06 December 2021
Orbit: 651 x 4225 km, 34.3° (Epoch: 26 January)

Event Time Altitude Azimuth Distance (km) Brightness Sun altitude
Exits shadow 07:10:47 10° 263° (W) 5,064 10.6 -13.5°
Reaches altitude 10° 07:10:52 10° 263° (W) 5,048 10.6 -13.4°
Maximum altitude 07:25:46 45° 197° (SSW) 4,262 10.8 -11.1°
Drops below altitude 10° 07:48:34 10° 135° (SE) 7,422 13.4 -7.6°
Sets 07:54:53 0° 130° (SE) 8,423 14.3 -6.6°
